Friday Harbor, WA

12:18 AM PDT on July 26, 2016 (GMT -0700)
Friday Harbor

Weather History for KFHR - December, 2012

Change the Weather History Date:

Friday, December 28, 2012

  Actual Average Record
Temperature  
Mean Temperature 42 °F -  
Max Temperature 45 °F 43 °F 55 °F (2011)
Min Temperature 39 °F 34 °F 24 °F (1996)
Degree Days  
Heating Degree Days 23    
Moisture  
Dew Point 37 °F    
Average Humidity 82    
Maximum Humidity 93    
Minimum Humidity 71    
Precipitation  
Precipitation 0.00 in - - ()
Sea Level Pressure  
Sea Level Pressure 30.14 in    
Wind  
Wind Speed 6 mph (ENE)    
Max Wind Speed 10 mph    
Max Gust Speed -    
Visibility 10 miles    
Events Rain    
Averages and records for this station are not official NWS values.
T = Trace of Precipitation, MM = Missing Value Source: NWS Daily Summary

Daily Weather History Graph

Daily Weather History Graph

Search for Another Location

Airport or City:

Trip Planner

Search our weather history database for the weather conditions in past years. The results will help you decide how hot, cold, wet, or windy it might be!

Date:

Astronomy

Dec. 28, 2012 Rise Set
Actual Time 8:03 AM PST 4:24 PM PST
Civil Twilight 7:27 AM PST 5:01 PM PST
Nautical Twilight 6:47 AM PST 5:41 PM PST
Astronomical Twilight 6:08 AM PST 6:19 PM PST
Moon 5:11 PM PST (12/28) 7:57 AM PST (12/28)
Length of Visible Light 9h 33m
Length of Day
8h 20m
Full, 100% of the Moon is Illuminated
Dec 28
Full
Jan 4
Last Quarter
Jan 11
New
Jan 18
First Quarter
Jan 26
Full

Hourly Weather History & Observations

Time (PST) Temp. Windchill Dew Point Humidity Pressure Visibility Wind Dir Wind Speed Gust Speed Precip Events Conditions
12:53 AM 42.1 °F 36.6 °F 39.0 °F 89% 30.16 in 10.0 mi East 9.2 mph - N/A   Overcast
1:53 AM 42.1 °F 36.6 °F 39.0 °F 89% 30.16 in 10.0 mi East 9.2 mph - N/A   Overcast
2:53 AM 42.1 °F 37.7 °F 37.9 °F 85% 30.15 in 10.0 mi East 6.9 mph - N/A   Overcast
3:53 AM 42.1 °F 37.1 °F 37.9 °F 85% 30.14 in 10.0 mi East 8.1 mph - N/A   Overcast
4:53 AM 43.0 °F 37.7 °F 36.0 °F 76% 30.13 in 10.0 mi East 9.2 mph - N/A   Overcast
5:53 AM 43.0 °F 37.2 °F 37.0 °F 80% 30.12 in 10.0 mi East 10.4 mph - N/A   Overcast
6:53 AM 43.0 °F 38.2 °F 36.0 °F 76% 30.12 in 10.0 mi ENE 8.1 mph - N/A   Overcast
7:53 AM 43.0 °F 39.5 °F 36.0 °F 76% 30.12 in 10.0 mi ENE 5.8 mph - N/A   Overcast
8:42 AM 42.8 °F 38.0 °F 35.6 °F 76% 30.12 in 10.0 mi ENE 8.1 mph - N/A   Overcast
8:53 AM 42.1 °F 38.4 °F 36.0 °F 79% 30.13 in 10.0 mi East 5.8 mph - N/A   Overcast
9:53 AM 43.0 °F 38.2 °F 37.0 °F 80% 30.14 in 10.0 mi ENE 8.1 mph - N/A   Overcast
10:53 AM 43.0 °F 38.2 °F 36.0 °F 76% 30.14 in 10.0 mi NE 8.1 mph - N/A   Overcast
11:39 AM 44.6 °F 40.2 °F 35.6 °F 71% 30.13 in 10.0 mi NE 8.1 mph - N/A   Overcast
11:53 AM 44.1 °F 40.1 °F 36.0 °F 73% 30.13 in 10.0 mi NE 6.9 mph - N/A   Overcast
12:15 PM 44.6 °F 40.2 °F 35.6 °F 71% 30.12 in 10.0 mi NE 8.1 mph - N/A   Overcast
12:53 PM 45.0 °F 41.2 °F 36.0 °F 71% 30.12 in 10.0 mi ENE 6.9 mph - N/A   Overcast
1:53 PM 45.0 °F - 37.0 °F 74% 30.12 in 10.0 mi Calm Calm - N/A   Overcast
2:53 PM 45.0 °F 43.5 °F 37.0 °F 74% 30.13 in 10.0 mi NE 3.5 mph - N/A   Overcast
3:53 PM 44.1 °F - 37.0 °F 76% 30.14 in 10.0 mi Calm Calm - N/A   Overcast
4:53 PM 42.1 °F - 37.0 °F 82% 30.14 in 10.0 mi Calm Calm - N/A   Overcast
5:53 PM 41.0 °F - 37.9 °F 89% 30.14 in 10.0 mi Calm Calm - N/A   Overcast
6:53 PM 41.0 °F - 37.9 °F 89% 30.14 in 10.0 mi Calm Calm - N/A   Overcast
7:53 PM 41.0 °F - 39.0 °F 93% 30.15 in 10.0 mi Calm Calm - 0.00 in Rain Light Rain
8:53 PM 41.0 °F - 39.0 °F 93% 30.15 in 10.0 mi Calm Calm - 0.00 in Rain Light Rain
9:53 PM 41.0 °F - 39.0 °F 93% 30.16 in 10.0 mi Calm Calm - 0.00 in   Overcast
10:10 PM 41.0 °F - 39.2 °F 93% 30.16 in 10.0 mi Calm Calm - N/A   Overcast
10:53 PM 41.0 °F - 39.0 °F 93% 30.17 in 10.0 mi Calm Calm - 0.00 in Rain Light Rain
11:48 PM 39.2 °F - 37.4 °F 93% 30.16 in 10.0 mi Calm Calm - 0.00 in   Overcast
11:53 PM 39.9 °F - 37.9 °F 93% 30.17 in 10.0 mi Calm Calm - 0.00 in   Overcast